1287619226185,16.9470
1287619286185,16.9465
1287619346185,17.0184
1287619406185,16.9734
1287619466185,17.0203
1287619526185,17.0017
1287619586185,16.9233
1287619646185,16.9617
1287619706185,16.9454
1287619766185,16.9323
1287619826185,16.9254
1287619886185,16.9458
1287619946185,16.9502
1287620006185,16.8917
1287620066185,16.9989
1287620126185,16.8469
1287620186185,16.9659
1287620246185,16.9418
1287620306185,16.9255
1287620366185,16.9352
1287620426185,16.9045
1287620486185,16.9472
1287620546185,16.9919
1287620606185,16.9997
1287620666185,16.9526
1287620726185,16.9043
1287620786185,16.9781
1287620846185,16.9034
1287620906185,16.9606
1287620966185,16.9558
1287621026185,16.9447
1287621086185,16.9596
1287621146185,16.9456
1287621206185,16.9087
1287621266185,16.9544
1287621326185,16.9584
1287621386185,16.9720
1287621446185,16.9604
1287621506185,16.9462
1287621566185,16.9444
1287621626185,16.9346
1287621686185,16.9632
1287621746185,16.9573
1287621806185,16.9426
1287621866185,16.9335
1287621926185,16.9286
1287621986185,16.9077
1287622046185,16.8984
1287622106185,16.9589
1287622166185,17.0129
1287622226185,16.8966
1287622286185,16.9527
1287622346185,16.9779
1287622406185,16.9118
1287622466185,16.9463
1287622526185,16.9423
1287622586185,16.9713
1287622646185,16.9020
1287622706185,16.9245
1287622766185,16.9189
1287622826195,16.9639
1287622886195,16.9896
1287622946195,16.9176
1287623006195,16.9224
1287623066195,16.8839
1287623126195,16.9249
1287623186195,16.9627
1287623246195,16.9223
1287623306195,16.9092
1287623366195,16.9807
1287623426195,16.9441
1287623486195,16.9398
1287623546195,16.9199
1287623606195,16.9089
1287623666195,16.9833
1287623726195,16.9060
1287623786195,16.9372
1287623846195,16.8743
1287623906195,16.9178
1287623966195,16.9067
1287624026195,16.8887
1287624086195,16.9061
1287624146195,16.9390
1287624206195,16.9570
1287624266195,16.9574
1287624326195,16.9277
1287624386195,16.9854
1287624446195,16.9724
1287624506195,16.9576
1287624566195,16.9722
1287624626195,16.9155
1287624686195,16.9280
1287624746195,16.9194
1287624806195,16.9518
1287624866195,16.9051
1287624926195,16.9229
1287624986195,16.9086
1287625046195,16.9061
1287625106195,16.8917
1287625166195,16.9233
1287625226195,16.9040
1287625286195,16.8626
1287625346195,16.9079
1287625406195,16.8516
1287625466195,16.8771
1287625526195,16.8632
1287625586195,16.8766
1287625646195,16.8199
1287625706195,16.9080
1287625766195,16.9155
1287625826195,16.8727
1287625886195,16.9007
1287625946195,16.8598
1287626006195,16.8855
1287626066195,16.9201
1287626126195,16.8773
1287626186195,16.8114
1287626246195,16.8727
1287626306195,16.8485
1287626366195,16.8943
1287626426205,16.8696
1287626486205,16.8889
1287626546205,16.8814
1287626606205,16.8502
1287626666205,16.8838
1287626726205,16.7984
1287626786205,16.8712
1287626846205,16.8778
1287626906205,16.8407
1287626966205,16.9065
1287627026205,16.8294
1287627086205,16.8240
1287627146205,16.8674
1287627206205,16.8721
1287627266205,16.8881
1287627326205,16.9487
1287627386205,16.9140
1287627446205,16.9187
1287627506205,16.9145
1287627566205,16.9405
1287627626205,16.9610
1287627686205,16.9261
1287627746205,16.9529
1287627806205,16.9221
1287627866205,16.8645
1287627926205,16.9065
1287627986205,16.8863
1287628046205,16.9251
1287628106205,16.9015
1287628166205,16.9010
1287628226205,16.8382
1287628286205,16.9543
1287628346205,16.8891
1287628406205,16.8543
1287628466205,16.9101
1287628526205,16.8718
1287628586205,16.8955
1287628646205,16.8398
1287628706205,16.9047
1287628766205,16.8797
1287628826205,16.8536
1287628886205,16.8794
1287628946205,16.8719
1287629006205,16.9265
1287629066205,16.8354
1287629126205,16.8838
1287629186205,16.8327
1287629246205,16.9743
1287629306205,16.8220
1287629366205,16.8981
1287629426205,16.8427
1287629486205,16.8715
1287629546205,16.9449
1287629606205,16.9003
1287629666205,16.8607
1287629726205,16.8946
1287629786205,16.8497
1287629846205,16.8661
1287629906205,16.9464
1287629966205,16.8962
1287630026215,16.8879
1287630086215,16.8902
1287630146215,16.8749
1287630206215,16.9090
1287630266215,16.8864
1287630326215,16.8724
1287630386215,16.8787
1287630446215,16.9229
1287630506215,16.9253
1287630566215,16.8533
1287630626215,16.9567
1287630686215,16.8637
1287630746215,16.9198
1287630806215,16.8799
1287630866215,16.9057
1287630926215,16.9401
1287630986215,16.8736
1287631046215,16.7878
1287631106215,16.8761
1287631166215,16.8869
1287631226215,16.8813
1287631286215,16.9096
1287631346215,16.8442
1287631406215,16.8721
1287631466215,16.9061
1287631526215,16.9233
1287631586215,16.9497
1287631646215,16.9483
1287631706215,16.9321
1287631766215,16.9529
1287631826215,16.9264
1287631886215,16.9391
1287631946215,16.8868
1287632006215,16.9291
1287632066215,16.9549
1287632126215,16.9108
1287632186215,16.9165
1287632246215,16.8807
1287632306215,16.8902
1287632366215,16.9410
1287632426215,16.9215
1287632486215,16.9329
1287632546215,17.0096
1287632606215,16.9492
1287632666215,16.9051
1287632726215,16.8812
1287632786215,16.8829
1287632846215,16.9068
1287632906215,16.8817
1287632966215,16.8663
1287633026215,16.8499
1287633086215,16.9187
1287633146215,16.9042
1287633206215,16.8373
1287633266215,16.8974
1287633326215,16.8123
1287633386215,16.8816
1287633446215,16.8921
1287633506215,16.8507
1287633566215,16.8848
1287633626225,16.9163
1287633686225,16.8793
1287633746225,16.9161
1287633806225,16.9117
1287633866225,16.8850
1287633926225,16.8481
1287633986225,16.8813
1287634046225,16.8390
1287634106225,16.8581
1287634166225,16.8977
1287634226225,16.8234
1287634286225,16.8499
1287634346225,16.8978
1287634406225,16.8690
1287634466225,16.8585
1287634526225,16.8084
1287634586225,16.8252
1287634646225,16.8073
1287634706225,16.8656
1287634766225,16.8746
1287634826225,16.9137
1287634886225,16.8627
1287634946225,16.9099
1287635006225,16.8442
1287635066225,16.8255
1287635126225,16.8434
1287635186225,16.8249
1287635246225,16.8155
1287635306225,16.8309
1287635366225,16.8241
1287635426225,16.8700
1287635486225,16.8356
1287635546225,16.8352
1287635606225,16.8640
1287635666225,16.8541
1287635726225,16.9100
1287635786225,16.8832
1287635846225,16.8983
1287635906225,16.8747
1287635966225,16.8725
1287636026225,16.9154
1287636086225,16.9012
1287636146225,16.9992
1287636206225,16.9163
1287636266225,16.9522
1287636326225,16.9148
1287636386225,16.9055
1287636446225,16.9064
1287636506225,16.9327
1287636566225,16.9129
1287636626225,16.9054
1287636686225,16.9421
1287636746225,16.8450
1287636806225,16.8991
1287636866225,16.9332
1287636926225,16.8431
1287636986225,16.8860
1287637046225,16.9102
1287637106225,16.9163
1287637166225,16.9010
1287637226235,16.8923
1287637286235,16.8794
1287637346235,16.8853
1287637406235,16.9236
1287637466235,16.8436
1287637526235,16.8876
1287637586235,16.8379
1287637646235,16.8302
1287637706235,16.8469
1287637766235,16.8292
1287637826235,16.8646
1287637886235,16.8362
1287637946235,16.8847
1287638006235,16.8353
1287638066235,16.8278
1287638126235,16.9076
1287638186235,16.8575
1287638246235,16.8694
1287638306235,16.8936
1287638366235,16.8470
1287638426235,16.8904
1287638486235,16.9367
1287638546235,16.8029
1287638606235,16.8351
1287638666235,16.9082
1287638726235,16.9053
1287638786235,16.8996
1287638846235,16.8929
1287638906235,16.9299
1287638966235,16.8515
1287639026235,16.8818
1287639086235,16.8998
1287639146235,16.8996
1287639206235,16.9296
1287639266235,16.9466
1287639326235,16.9118
1287639386235,16.9284
1287639446235,16.9377
1287639506235,16.8854
1287639566235,16.8659
1287639626235,16.9010
1287639686235,16.8947
1287639746235,16.8628
1287639806235,16.9109
1287639866235,16.8978
1287639926235,16.8695
1287639986235,16.8887
1287640046235,16.8967
1287640106235,16.8980
1287640166235,16.8513
1287640226235,16.9045
1287640286235,16.9386
1287640346235,16.8891
1287640406235,16.8945
1287640466235,16.9497
1287640526235,16.9265
1287640586235,16.8987
1287640646235,16.9507
1287640706235,16.9398
1287640766235,16.9543
1287640826245,16.8695
1287640886245,16.8759
1287640946245,16.8414
1287641006245,16.8622
1287641066245,16.8874
1287641126245,16.9075
1287641186245,16.9042
1287641246245,16.9241
1287641306245,16.8469
1287641366245,16.9176
1287641426245,16.8722
1287641486245,16.8663
1287641546245,16.8981
1287641606245,16.9186
1287641666245,16.8588
1287641726245,16.8087
1287641786245,16.8280
1287641846245,16.8378
1287641906245,16.8545
1287641966245,16.9012
1287642026245,16.8584
1287642086245,16.8733
1287642146245,16.8714
1287642206245,16.8897
1287642266245,16.8210
1287642326245,16.8905
1287642386245,16.8917
1287642446245,16.8809
1287642506245,16.8735
1287642566245,16.8883
1287642626245,16.8747
1287642686245,16.8281
1287642746245,16.9087
1287642806245,16.9077
1287642866245,16.8793
1287642926245,16.8406
1287642986245,16.8916
1287643046245,16.8690
1287643106245,16.9393
1287643166245,16.9663
1287643226245,16.9842
1287643286245,16.9565
1287643346245,16.9600
1287643406245,16.9780
1287643466245,16.8900
1287643526245,16.9137
1287643586245,16.8867
1287643646245,16.8806
1287643706245,16.8455
1287643766245,16.9239
1287643826245,16.9058
1287643886245,16.9524
1287643946245,16.8829
1287644006245,16.8641
1287644066245,16.8400
1287644126245,16.8479
1287644186245,16.8410
1287644246245,16.8743
1287644306245,16.7830
1287644366245,16.8601
1287644426255,16.8583
1287644486255,16.8665
1287644546255,16.8106
1287644606255,16.8592
1287644666255,16.8500
1287644726255,16.8900
1287644786255,16.8759
1287644846255,16.8857
1287644906255,16.8207
1287644966255,16.8046
1287645026255,16.9270
1287645086255,16.8852
1287645146255,16.8831
1287645206255,16.8814
1287645266255,16.8821
1287645326255,16.8164
1287645386255,16.8366
1287645446255,16.8580
1287645506255,16.9040
1287645566255,16.8268
1287645626255,16.8317
1287645686255,16.8740
1287645746255,16.8203
1287645806255,16.8602
1287645866255,16.9128
1287645926255,16.8825
1287645986255,16.8667
1287646046255,16.9330
1287646106255,16.8895
1287646166255,16.8947
1287646226255,16.8706
1287646286255,16.8066
1287646346255,16.9042
1287646406255,16.8764
1287646466255,16.9117
1287646526255,16.8698
1287646586255,16.9113
1287646646255,16.8137
1287646706255,16.8052
1287646766255,16.8348
1287646826255,16.8956
1287646886255,16.8678
1287646946255,16.8232
1287647006255,16.8414
1287647066255,16.8494
1287647126255,16.8716
1287647186255,16.8790
1287647246255,16.8573
1287647306255,16.8261
1287647366255,16.8422
1287647426255,16.8917
1287647486255,16.8501
1287647546255,16.8300
1287647606255,16.8518
1287647666255,16.8070
1287647726255,16.8615
1287647786255,16.8210
1287647846255,16.9267
1287647906255,16.8833
1287647966255,16.9316
1287648026265,16.9165
1287648086265,16.9278
1287648146265,16.8745
1287648206265,16.8782
1287648266265,16.9196
1287648326265,16.8751
1287648386265,16.8862
1287648446265,16.9347
1287648506265,16.9039
1287648566265,16.9101
1287648626265,16.9354
1287648686265,16.8740
1287648746265,16.9428
1287648806265,16.9118
1287648866265,16.8758
1287648926265,16.9107
1287648986265,16.9391
1287649046265,16.9080
1287649106265,16.9504
1287649166265,16.8971
1287649226265,16.9332
1287649286265,16.9185
1287649346265,16.8940
1287649406265,16.9387
1287649466265,16.9528
1287649526265,16.8665
1287649586265,16.9213
1287649646265,16.8881
1287649706265,16.9041
1287649766265,16.9233
1287649826265,16.9160
1287649886265,16.9392
1287649946265,16.9204
1287650006265,17.0076
1287650066265,16.9908
1287650126265,16.9686
1287650186265,16.9954
1287650246265,17.0327
1287650306265,16.9919
1287650366265,17.0056
1287650426265,17.0126
1287650486265,17.0279
1287650546265,16.9903
1287650606265,17.0454
1287650666265,17.0482
1287650726265,17.0560
1287650786265,17.0857
1287650846265,17.0348
1287650906265,17.0402
1287650966265,17.0626
1287651026265,17.0601
1287651086265,17.0211
1287651146265,17.1056
1287651206265,17.0723
1287651266265,17.1060
1287651326265,17.0742
1287651386265,17.0385
1287651446265,17.0644
1287651506265,16.9761
1287651566265,16.9753
1287651626276,17.0878
1287651686276,17.0197
1287651746276,17.0294
1287651806276,17.0097
1287651866276,17.0159
1287651926276,16.9428
1287651986276,16.9951
1287652046276,16.9614
1287652106276,16.9316
1287652166276,16.9471
1287652226276,17.0119
1287652286276,17.0109
1287652346276,16.9842
1287652406276,16.9840
1287652466276,16.9998
1287652526276,17.0044
1287652586276,17.0401
1287652646276,16.9657
1287652706276,16.9965
1287652766276,17.0032
1287652826276,16.9929
1287652886276,16.9209
1287652946276,16.9993
1287653006276,16.9968
1287653066276,16.9753
1287653126276,17.0158
1287653186276,17.0049
1287653246276,16.9881
1287653306276,16.9888
1287653366276,16.9567
1287653426276,17.0136
1287653486276,16.9382
1287653546276,16.9861
1287653606276,17.0252
1287653666276,17.0101
1287653726276,16.9737
1287653786276,16.9886
1287653846276,17.0349
1287653906276,17.0339
1287653966276,16.9734
1287654026276,17.0185
1287654086276,17.0110
1287654146276,16.9781
1287654206276,16.9838
1287654266276,17.0531
1287654326276,16.9991
1287654386276,16.9904
1287654446276,16.9966
1287654506276,17.0174
1287654566276,16.9700
1287654626276,16.9760
1287654686276,16.9735
1287654746276,16.9298
1287654806276,16.9685
1287654866276,16.9775
1287654926276,16.9934
1287654986276,17.0641
1287655046276,16.9803
1287655106276,16.9812
1287655166276,16.9950
1287655226286,17.0227
1287655286286,16.9827
1287655346286,16.9278
1287655406286,17.0146
1287655466286,17.0021
1287655526286,16.9636
1287655586286,16.9478
1287655646286,16.9541
1287655706286,16.9692
1287655766286,16.9382
1287655826286,16.8945
1287655886286,16.9157
1287655946286,16.9542
1287656006286,16.9434
1287656066286,16.9318
1287656126286,16.9666
1287656186286,16.9753
1287656246287,16.9890
1287656306287,16.9436
1287656366287,16.9175
1287656426286,16.9294
1287656486286,16.9460
1287656546286,16.8697
1287656606286,16.9341
1287656666286,16.9751
1287656726286,16.9435
1287656786286,17.0056
1287656846286,16.9869
1287656906286,17.0107
1287656966286,16.9647
1287657026286,16.9975
1287657086286,16.9600
1287657146286,16.9806
1287657206286,16.9637
1287657266286,17.0198
1287657326286,16.9758
1287657386286,16.9572
1287657446286,17.0443
1287657506286,16.9874
1287657566286,16.9772
1287657626287,16.9606
1287657686287,16.9660
1287657746287,16.9619
1287657806286,16.9486
1287657866286,16.9457
1287657926286,16.9893
1287657986286,16.8916
1287658046286,17.0679
1287658106286,17.0109
1287658166286,16.9816
1287658226286,16.9553
1287658286286,16.9094
1287658346286,16.9703
1287658406286,16.9909
1287658466286,17.0002
1287658526286,17.0090
1287658586286,16.9313
1287658646286,16.9946
1287658706286,16.9531
1287658766286,16.9517
1287658826297,17.0430
1287658886297,17.0017
1287658946297,17.0192
1287659006297,17.0292
1287659066297,17.0187
1287659126297,16.9311
1287659186297,17.0010
1287659246297,16.9871
1287659306297,17.0228
1287659366297,16.9944
1287659426297,16.9789
1287659486297,17.0115
1287659546297,16.9437
1287659606297,17.0037
1287659666297,16.9462
1287659726297,16.9304
1287659786297,16.9606
1287659846297,17.0103
1287659906297,16.9846
1287659966297,17.0113
1287660026297,16.9647
1287660086297,16.9856
1287660146297,17.0192
1287660206297,17.0005
1287660266297,17.0279
1287660326297,17.0027
1287660386297,16.9724
1287660446297,16.9623
1287660506297,16.9331
1287660566297,16.9868
1287660626297,16.9796
1287660686297,17.0192
1287660746297,16.9509
1287660806297,16.9631
1287660866297,16.9535
1287660926297,16.9697
1287660986297,16.9314
1287661046297,17.0144
1287661106297,16.9469
1287661166297,16.9586
1287661226297,16.9833
1287661286297,16.9318
1287661346297,16.9598
1287661406297,16.9631
1287661466297,16.9588
1287661526297,16.9508
1287661586297,16.9493
1287661646297,16.9822
1287661706297,16.9973
1287661766297,16.9723
1287661826297,16.9643
1287661886297,16.9622
1287661946297,16.9289
1287662006297,16.9465
1287662066297,16.8657
1287662126297,16.9033
1287662186297,16.9352
1287662246297,16.9464
1287662306297,16.9016
1287662366297,16.9829
1287662426309,16.9783
1287662486309,16.9209
1287662546309,16.9832
1287662606309,16.9342
1287662666309,16.9825
1287662726309,16.9651
1287662786309,16.9671
1287662846309,16.9731
1287662906309,16.9697
1287662966309,17.0326
1287663026309,16.9414
1287663086309,16.9241
1287663146309,16.9790
1287663206309,16.9922
1287663266309,16.9458
1287663326309,16.9461
1287663386309,16.9736
1287663446309,16.9693
1287663506309,16.9356
1287663566309,16.9277
1287663626309,16.9854
1287663686309,16.9346
1287663746309,16.9747
1287663806309,16.9208
1287663866309,16.9627
1287663926309,16.9795
1287663986309,17.0087
1287664046309,16.9984
1287664106309,16.9723
1287664166309,16.9896
1287664226309,16.9434
1287664286309,16.9908
1287664346309,17.0360
1287664406309,17.0005
1287664466309,17.0094
1287664526309,16.9646
1287664586309,16.9892
1287664646309,17.0016
1287664706309,16.9846
1287664766309,17.0203
1287664826309,16.9961
1287664886309,17.0018
1287664946309,16.9793
1287665006309,16.9576
1287665066309,16.9642
1287665126309,16.9582
1287665186309,16.9810
1287665246309,16.9370
1287665306309,16.9831
1287665366309,16.9588
1287665426309,16.9148
1287665486309,16.9610
1287665546309,16.9352
1287665606309,16.9155
1287665666309,16.9303
1287665726309,16.9488
1287665786309,16.9489
1287665846309,16.9092
1287665906309,16.9632
1287665966309,16.9749
1287666026320,16.8972
1287666086320,16.9218
1287666146320,16.9643
1287666206320,16.9686
1287666266320,16.9508
1287666326320,16.9614
1287666386320,16.9389
1287666446320,16.9734
1287666506320,16.9167
1287666566320,16.9562
1287666626320,16.9399
1287666686320,17.0032
1287666746320,16.9802
1287666806320,16.9814
1287666866320,16.9185
1287666926320,16.9368
1287666986320,16.9156
1287667046320,16.9736
1287667106320,16.8966
1287667166320,16.8955
1287667226320,16.9003
1287667286320,16.8982
1287667346320,16.8994
1287667406320,16.9411
1287667466320,16.9363
1287667526320,16.9224
1287667586320,16.9158
1287667646320,16.8719
1287667706320,16.9162
1287667766320,16.9157
1287667826320,16.8655
1287667886320,16.9581
1287667946320,16.8916
1287668006320,16.8996
1287668066320,16.9237
1287668126320,16.8927
1287668186320,16.9170
1287668246320,16.9195
1287668306320,16.9388
1287668366320,16.8557
1287668426320,16.9043
1287668486320,16.9140
1287668546320,16.9591
1287668606320,16.9009
1287668666320,16.9312
1287668726320,16.8594
1287668786320,16.9389
1287668846320,16.9641
1287668906320,16.8750
1287668966320,16.8968
1287669026320,16.9374
1287669086320,16.9440
1287669146320,16.9608
1287669206320,16.9832
1287669266320,16.9067
1287669326320,16.9236
1287669386320,16.9591
1287669446320,16.9238
1287669506320,16.8851
1287669566320,16.9148
1287669626331,16.9107
1287669686331,16.9767
1287669746331,16.8693
1287669806331,16.9216
1287669866331,16.9218
1287669926331,16.9255
1287669986331,16.9580
1287670046331,16.8657
1287670106331,16.8596
1287670166331,16.9469
1287670226331,16.8932
1287670286331,16.9152
1287670346331,16.9279
1287670406331,16.9396
1287670466331,16.8840
1287670526331,16.9203
1287670586331,16.9272
1287670646331,16.8803
1287670706331,16.8873
1287670766331,16.9251
1287670826331,16.8615
1287670886331,16.9063
1287670946331,16.8221
1287671006331,16.9430
1287671066331,16.9158
1287671126331,16.8666
1287671186331,16.9290
1287671246331,16.9476
1287671306331,16.9643
1287671366331,16.9181
1287671426331,16.9301
1287671486331,16.9280
1287671546331,16.8928
1287671606331,16.9265
1287671666331,16.9114
1287671726331,16.9517
1287671786331,16.9131
1287671846331,16.9163
1287671906331,16.9345
1287671966331,16.9209
1287672026331,16.9982
1287672086331,16.9980
1287672146331,16.9234
1287672206331,16.9314
1287672266331,16.9244
1287672326331,16.9266
1287672386331,16.9423
1287672446331,16.9677
1287672506331,16.9603
1287672566331,16.9408
1287672626331,16.9368
1287672686331,16.9599
1287672746331,16.9517
1287672806331,16.9543
1287672866331,16.9715
1287672926331,16.9076
1287672986331,16.9785
1287673046331,16.9189
1287673106331,16.9669
1287673166331,16.9130
1287673226343,16.9774
1287673286343,16.9760
1287673346343,16.9321
1287673406343,16.9461
1287673466343,16.9569
1287673526343,16.9986
1287673586343,16.9637
1287673646343,16.9615
1287673706343,16.9625
1287673766343,16.9325
1287673826343,16.9390
1287673886343,16.9126
1287673946343,16.9814
1287674006343,16.9633
1287674066343,16.9864
1287674126343,16.9759
1287674186343,16.9432
1287674246343,16.9268
1287674306343,17.0103
1287674366343,17.0383
1287674426343,16.9851
1287674486343,17.0140
1287674546343,16.9734
1287674606343,16.9446
1287674666343,16.9591
1287674726343,16.9422
1287674786343,17.0074
1287674846343,16.9850
1287674906343,16.9848
1287674966343,16.9868
1287675026343,16.9683
1287675086343,16.9899
1287675146343,16.9742
1287675206343,16.9095
1287675266343,16.9529
1287675326343,16.9200
1287675386343,16.9502
1287675446343,16.9419
1287675506343,16.9475
1287675566343,16.9926
1287675626343,16.9532
1287675686343,16.9112
1287675746343,16.9678
1287675806343,16.9603
1287675866343,16.9960
1287675926343,16.9949
1287675986343,16.9416
1287676046343,16.9414
1287676106343,16.9532
1287676166343,16.9943
1287676226343,16.9149
1287676286343,16.9947
1287676346343,16.9380
1287676406343,16.9727
1287676466343,16.9491
1287676526343,16.9833
1287676586343,16.9844
1287676646343,16.9907
1287676706343,16.9616
1287676766343,16.9796
1287676826355,17.0047
1287676886355,16.9571
1287676946355,16.9802
1287677006355,17.0034
1287677066355,17.0083
1287677126355,17.0251
1287677186355,16.9975
1287677246355,16.9874
1287677306355,17.0029
1287677366355,17.0435
1287677426355,16.9719
1287677486355,16.9535
1287677546355,16.9647
1287677606355,17.0003
1287677666355,17.0165
1287677726355,16.9499
1287677786355,16.9794
1287677846355,16.9556
1287677906355,16.9897
1287677966355,17.0260
1287678026355,16.9970
1287678086355,16.9432
1287678146355,17.0028
1287678206355,17.0430
1287678266355,17.0471
1287678326355,16.9802
1287678386355,17.0125
1287678446355,16.9374
1287678506355,17.0381
1287678566355,16.9687
1287678626355,17.0416
1287678686355,17.0436
1287678746355,17.0455
1287678806355,16.9966
1287678866355,16.9929
1287678926355,17.0001
1287678986355,17.0206
1287679046355,16.9812
1287679106355,16.9468
1287679166355,17.0372
1287679226355,17.0052
1287679286355,16.9845
1287679346355,16.9843
1287679406355,16.9892
1287679466355,17.0206
1287679526355,17.0319
1287679586355,16.9945
1287679646355,17.0400
1287679706355,16.9847
1287679766355,17.0316
1287679826355,16.9865
1287679886355,16.9957
1287679946355,16.9721
1287680006355,16.9631
1287680066355,17.0313
1287680126355,17.0181
1287680186355,16.9709
1287680246355,16.9851
1287680306355,16.9968
1287680366355,16.9694
1287680426367,16.9918
1287680486367,17.0392
1287680546367,16.9820
1287680606367,16.9505
1287680666367,16.9693
1287680726367,16.9685
1287680786367,17.0294
1287680846367,17.0147
1287680906367,16.9611
1287680966367,16.9527
1287681026367,17.0313
1287681086367,16.9595
1287681146367,16.9890
1287681206367,17.0181
1287681266367,17.0300
1287681326367,16.9038
1287681386367,16.9994
1287681446367,16.9693
1287681506367,17.0157
1287681566367,16.9507
1287681626367,17.0012
1287681686367,16.9903
1287681746367,16.9740
1287681806367,17.0369
1287681866367,16.9890
1287681926367,16.9879
1287681986367,17.0405
1287682046367,17.0230
1287682106367,17.0528
1287682166367,17.0383
1287682226367,17.0545
1287682286367,17.0752
1287682346367,17.0677
1287682406367,17.0077
1287682466367,17.0667
1287682526367,17.0402
1287682586367,17.0987
1287682646367,17.0967
1287682706367,17.0602
1287682766367,17.0546
1287682826367,17.0635
1287682886367,17.1265
1287682946367,17.0883
1287683006367,17.1042
1287683066367,17.0411
1287683126367,17.0783
1287683186367,17.0558
1287683246367,16.9659
1287683306367,17.0148
1287683366367,17.0387
1287683426367,17.0283
1287683486367,17.0182
1287683546367,17.0347
1287683606367,17.0819
1287683666367,17.0821
1287683726367,17.0932
1287683786367,17.1349
1287683846367,17.1305
1287683906367,17.1286
1287683966367,17.0824
1287684026378,17.0819
1287684086378,17.0074
1287684146378,17.0743
1287684206378,17.0600
1287684266378,17.0653
1287684326378,17.0927
1287684386378,17.0857
1287684446378,17.0817
1287684506378,17.0863
1287684566378,17.0228